Find Starlink 31736

NORAD ID: 59547 Int'l Des: 2024-074 Owner: SPXS Country: US Constellation: starlink operational
LEOCIRCULAR

Current View

Loading 3D Globe...

About Starlink 31736

Starlink 31736 (NORAD 59547) is a starlink constellation satellite (v2 mini) launched Apr 18, 2024 by SPXS of US. It operates in LEO, CIRCULAR orbit with a mass of 730.00 kg.

About Starlink 31736

Description loading...

Upcoming Passes

Passes for default location (London). Set your location on the main map for personalized predictions.

Altitude History

Loading altitude history...

Two-Line Element Set

1 59547U 24074P 26169.24749257 .00001338 00000-0 58134-4 0 9991
2 59547 43.0001 128.6696 0001445 263.4510 96.6177 15.27578539121476
Epoch: Jun 18, 2026 • Age: 8 hours

Current Status

Altitude 487.3 km
Velocity 7.62 km/s
Sub-Earth Point -20.93°S, 8.76°W
Launch Date Apr 18, 2024
Age 2.1 years
Type internet

Technical Details

Classification Payload
Mass 730.00 kg
Dry Mass 700.00 kg
Total Mass 730.00 kg
Length 0.30 m
Diameter 4.10 m
Span 29.00 m
Shape Box + pan
Manufacturer SPXS
Bus Type Starlink V2M
Phase Status In Orbit
Owner/State SPXS/US

Most Searched